[[{"header":{"parameterUnit":"m.s-1","parameterCategory":2,"la1":30.2991,"la2":30.254,"lo1":-89.0895,"lo2":-89.0444,"dy":0.0017,"dx":0.0017,"nx":28,"ny":28,"refTime":"2025-04-04T09:00:00:Z","depth":"0","parameterNumber":2,"parameterNumberName":"U-component_of_CURRENTS"},"data":[0,0,0,0,0,0,0,0,0,0,0,0,0,0,0,0,0,0,0,0,0,0,0,0,0,0,0,0,0,0,0,0,0,0,0,0,0,0,0,0,0,0,0,0,0,0,0,0,0,0,0,0,0,0,0,0,0,0,0.2397,0.2398,0,0.2418,0.2418,0.2418,0.2372,0.2371,0.237,0.2369,0.2356,0.2357,0.2357,0,0,0,0,0,0,0,0,0,0,0,0,0,0.2347,0.2348,0.2397,0.2398,0.2398,0.2418,0.2418,0.2418,0.2372,0.2371,0.237,0.2368,0.2356,0.2357,0.2358,0,0,0,0,0,0,0,0,0,0,0,0,0,0.2365,0.2348,0.2397,0.238,0.2379,0.2418,0.2418,0.2418,0.2373,0.2371,0.2369,0.2367,0.2355,0.2357,0.2358,0.2401,0,0,0.2361,0.2362,0,0,0,0,0,0,0,0,0.2364,0.2367,0.2382,0.2381,0.238,0.2393,0.2395,0.2411,0.2373,0.2372,0.2369,0.2367,0.2368,0.2368,0.2373,0.24,0.24,0.2361,0.2362,0.2363,0.2363,0,0,0,0,0,0,0,0.2363,0.2366,0.2403,0.2383,0.2382,0.2381,0.2381,0.2398,0.2377,0.2372,0.237,0.2377,0.2367,0.2372,0.2372,0.24,0.2361,0.2362,0.2363,0.2364,0.2503,0.2506,0,0,0,0,0,0,0.2367,0.2365,0.2402,0.2403,0.2371,0.2384,0.2383,0.2388,0.2378,0.2376,0.2378,0.2375,0.2371,0.2371,0.2371,0.2467,0.2363,0.2364,0.2364,0.25,0.2504,0.2507,0,0,0,0,0,0,0.2366,0.237,0.2401,0.2387,0.2391,0.2386,0.2392,0.239,0.2401,0.2384,0.2379,0.2393,0.2369,0.237,0.2408,0.2464,0.2364,0.2365,0.2497,0.2502,0.2506,0.2628,0,0,0,0,0,0,0.2364,0.2369,0.238,0.2387,0.2392,0.2465,0.2394,0.2392,0.2409,0.2405,0.2395,0.2391,0.2368,0.2407,0.241,0.2463,0.2366,0.2493,0.2499,0.2504,0.262,0.2636,0.265,0,0,0,0,0,0.2362,0.2389,0.238,0.2385,0.2404,0.2468,0.2473,0.2459,0.2412,0.2454,0.243,0.2392,0.2444,0.2411,0.2413,0.2468,0.249,0.2497,0.2504,0.2614,0.2633,0.265,0,0,0,0,0,0,0.2368,0.2387,0.2377,0.2406,0.2452,0.2462,0.249,0.2475,0.2487,0.2469,0.2431,0.2429,0.2488,0.2466,0.2429,0.2527,0.2462,0.247,0.2545,0.2563,0.2578,0.2565,0.2367,0,0,0,0,0,0.2377,0.24,0.2431,0.2458,0.2483,0.2487,0.2506,0.2505,0.2513,0.2515,0.2513,0.2505,0.252,0.2529,0.2547,0.2599,0.2551,0.2637,0.2652,0.2665,0.2658,0.2608,0.2616,0.253,0.253,0.2529,0,0,0.238,0.2399,0.2406,0.2462,0.2483,0.254,0.2494,0.2542,0.2585,0.2514,0.2572,0.2566,0.2548,0.2609,0.2633,0.2594,0.2679,0.2673,0.2684,0.267,0.2616,0.2623,0.263,0.2534,0.2533,0.2533,0,0,0.2425,0.2426,0.2473,0.2517,0.2573,0.2586,0.2607,0.2645,0.2663,0.2726,0.2677,0.2702,0.2739,0.2734,0.2731,0.284,0.2763,0.2852,0.291,0.2863,0.2868,0.2872,0.2874,0.2877,0.2852,0.2852,0.2852,0,0.243,0.2483,0.2503,0.257,0.2597,0.2612,0.2671,0.2712,0.2758,0.2767,0.2767,0.2788,0.2798,0.2818,0.287,0.2874,0.2835,0.2841,0.2878,0.2881,0.2882,0.2882,0.2884,0.2859,0.2858,0.2858,0.2857,0,0.2516,0.256,0.2597,0.2672,0.2716,0.2774,0.2825,0.2879,0.2891,0.2904,0.295,0.2958,0.2949,0.2983,0.2969,0.2993,0.2962,0.2905,0.2823,0.2898,0.2895,0.2894,0.2869,0.2866,0.2864,0.2863,0,0,0.2509,0.2632,0.264,0.2673,0.2764,0.2798,0.2892,0.2958,0.2965,0.3041,0.3043,0.3121,0.3083,0.3078,0.3057,0.3045,0.3075,0.2992,0.2986,0.2979,0.2993,0.2987,0.2985,0.3,0.3,0.3,0.3003,0,0.2567,0.2686,0.2733,0.2818,0.2873,0.2911,0.2976,0.3027,0.3063,0.3083,0.3097,0.3103,0.3128,0.3108,0.311,0.3063,0.3069,0.3081,0.2934,0.2931,0.2901,0.2982,0.2893,0.2887,0.3002,0.3002,0.3001,0,0.2626,0.2694,0.2793,0.2858,0.2879,0.2925,0.297,0.3036,0.3079,0.3096,0.3107,0.3095,0.3121,0.3106,0.3089,0.3083,0.3063,0.3038,0.3035,0.2974,0.2921,0.2822,0.288,0.2833,0.2999,0.2999,0.2999,0,0.2591,0.2714,0.2779,0.281,0.2906,0.2932,0.2973,0.3026,0.3058,0.3083,0.3086,0.3088,0.308,0.3054,0.307,0.3054,0.3029,0.2982,0.2968,0.2968,0.2837,0.2826,0.2809,0.2961,0.2961,0.2961,0.2961,0,0.262,0.2658,0.2758,0.2791,0.2824,0.2894,0.2918,0.2965,0.3003,0.3005,0.3068,0.3057,0.3059,0.306,0.3055,0.3033,0.3018,0.2996,0.2963,0.2887,0.2882,0.2786,0.2762,0.2961,0.2961,0.2961,0.2961,0,0.2571,0.2652,0.2712,0.28,0.2815,0.2831,0.289,0.2899,0.2961,0.2964,0.2972,0.3027,0.3032,0.3061,0.3019,0.3013,0.2906,0.2979,0.2931,0.2893,0.2818,0.2804,0.2623,0.2534,0.2945,0.2945,0.2945,0,0.2561,0.2597,0.2685,0.2693,0.2728,0.2763,0.2778,0.286,0.287,0.2934,0.2917,0.2961,0.2966,0.2973,0.2962,0.2962,0.2882,0.2877,0.2835,0.2823,0.2782,0.2672,0.2601,0.2733,0.2731,0.2729,0.2728,0,0.2519,0.2549,0.2596,0.2616,0.2632,0.2647,0.2677,0.2682,0.2757,0.2776,0.2774,0.2793,0.2856,0.2819,0.2875,0.2859,0.2746,0.2845,0.2807,0.2609,0.2504,0.2399,0.2767,0.2714,0.2715,0.2716,0.2717,0.2718,0.2457,0.2465,0.251,0.2512,0.2527,0.2495,0.2461,0.2496,0.2494,0.249,0.2586,0.2592,0.2689,0.2752,0.273,0.2683,0.2642,0.2607,0.2596,0.249,0.238,0.2764,0.2684,0.2685,0.2686,0.2687,0.2687,0,0.2365,0.2381,0.2387,0.238,0.2333,0.2374,0.2353,0.2299,0.2244,0.2317,0.2321,0.2408,0.2435,0.2514,0.2546,0.2462,0.2326,0.2393,0.2212,0.2156,0.2477,0.2448,0.2341,0.2341,0.2341,0.2341,0.2341,0.2341,0.2315,0.229,0.2293,0.2181,0.2158,0.2047,0.2002,0.1959,0.1982,0.1976,0.2028,0.2119,0.233,0.2423,0.2371,0.2304,0.2122,0.2023,0.2003,0.226,0.2279,0.2296,0.2264,0.212,0.212,0.158,0.1576,0.1573]},{"header":{"parameterUnit":"m.s-1","parameterCategory":2,"la1":30.2991,"la2":30.254,"lo1":-89.0895,"lo2":-89.0444,"dy":0.0017,"dx":0.0017,"nx":28,"ny":28,"refTime":"2025-04-04T09:00:00:Z","depth":"0","parameterNumber":3,"parameterNumberName":"V-component_of_CURRENTS"},"data":[0,0,0,0,0,0,0,0,0,0,0,0,0,0,0,0,0,0,0,0,0,0,0,0,0,0,0,0,0,0,0,0,0,0,0,0,0,0,0,0,0,0,0,0,0,0,0,0,0,0,0,0,0,0,0,0,0,0,0.0115,0.0115,0,0.0109,0.0108,0.0108,0.0098,0.0098,0.0098,0.0098,0.0063,0.0062,0.0061,0,0,0,0,0,0,0,0,0,0,0,0,0,0.0123,0.0123,0.0115,0.0115,0.0115,0.0109,0.0108,0.0108,0.0099,0.0098,0.0098,0.0098,0.0063,0.0062,0.0061,0,0,0,0,0,0,0,0,0,0,0,0,0,0.0118,0.0123,0.0115,0.011,0.0109,0.0109,0.0108,0.0108,0.0099,0.0098,0.0098,0.0098,0.0063,0.0062,0.0061,0.0059,0,0,0.0058,0.0057,0,0,0,0,0,0,0,0,0.0119,0.0118,0.0111,0.011,0.0109,0.0104,0.0098,0.009,0.0099,0.0102,0.0098,0.0098,0.0074,0.0072,0.0072,0.0057,0.0055,0.0057,0.0057,0.0056,0.0056,0,0,0,0,0,0,0,0.0119,0.0118,0.0113,0.0111,0.011,0.0109,0.0108,0.0097,0.0089,0.0102,0.0101,0.0101,0.0074,0.0073,0.0071,0.0055,0.0057,0.0056,0.0056,0.0055,0.0031,0.0031,0,0,0,0,0,0,0.012,0.0119,0.0113,0.0112,0.0114,0.0109,0.0107,0.0106,0.009,0.0087,0.0101,0.01,0.0075,0.0072,0.0069,0.0081,0.0056,0.0055,0.0054,0.0031,0.0031,0.0031,0,0,0,0,0,0,0.012,0.012,0.0113,0.0115,0.0115,0.0109,0.0107,0.0106,0.0107,0.0089,0.0086,0.0103,0.0075,0.0071,0.0071,0.0079,0.0055,0.0054,0.0031,0.0031,0.0031,0.0095,0,0,0,0,0,0,0.0121,0.012,0.012,0.0116,0.0114,0.0125,0.0107,0.0106,0.0107,0.0106,0.009,0.0087,0.0074,0.0073,0.007,0.0077,0.0053,0.0031,0.0031,0.0031,0.0092,0.0097,0.0101,0,0,0,0,0,0.0121,0.0127,0.0121,0.012,0.0115,0.0126,0.0126,0.012,0.0107,0.0117,0.0105,0.0087,0.0071,0.0073,0.0069,0.0076,0.0031,0.0031,0.0031,0.0091,0.0096,0.0101,0,0,0,0,0,0,0.0133,0.0127,0.0119,0.0123,0.0128,0.0124,0.013,0.0123,0.0121,0.0117,0.0096,0.0092,0.0092,0.0073,0.0076,0.0067,0.0044,0.0044,0.0091,0.0096,0.01,0.0128,0.0052,0,0,0,0,0,0.0135,0.0136,0.0134,0.0138,0.0141,0.0134,0.0136,0.0134,0.013,0.0129,0.0119,0.0101,0.0089,0.0085,0.0073,0.0074,0.0048,0.0071,0.0075,0.0079,0.0098,0.0048,0.0049,0.0032,0.0032,0.0032,0,0,0.0139,0.0137,0.0137,0.0141,0.014,0.0166,0.0135,0.0144,0.0167,0.0125,0.0147,0.0117,0.0092,0.0095,0.0092,0.0082,0.0072,0.0079,0.0083,0.01,0.0048,0.005,0.0051,0.0032,0.0032,0.0032,0,0,0.0165,0.0148,0.0167,0.0176,0.0182,0.0184,0.0189,0.019,0.019,0.0201,0.0174,0.0156,0.014,0.0129,0.0118,0.0136,0.0094,0.012,0.0168,0.0119,0.012,0.0121,0.0101,0.0099,0.0123,0.0123,0.0124,0,0.0174,0.0199,0.0176,0.0204,0.0222,0.0198,0.0237,0.0236,0.0238,0.024,0.0216,0.0184,0.016,0.0162,0.0169,0.0147,0.0118,0.0154,0.0125,0.0125,0.0125,0.0104,0.0102,0.0127,0.0126,0.0126,0.0126,0,0.0223,0.0246,0.0259,0.0288,0.0301,0.0329,0.0329,0.0337,0.0323,0.0315,0.0304,0.0263,0.0245,0.0225,0.0206,0.0195,0.0175,0.0136,0.0117,0.0131,0.0108,0.0104,0.0131,0.013,0.0129,0.0128,0,0,0.0245,0.0288,0.0294,0.0328,0.0352,0.0371,0.0402,0.0425,0.044,0.0412,0.0423,0.0386,0.0344,0.0329,0.0287,0.0247,0.022,0.0199,0.0195,0.0189,0.0129,0.0125,0.0121,0.0167,0.0166,0.0166,0.0118,0,0.03,0.0375,0.0379,0.0454,0.0497,0.0489,0.0522,0.0529,0.0515,0.0515,0.0454,0.0442,0.0389,0.0372,0.0325,0.0244,0.0212,0.0239,0.0109,0.0106,0.0108,0.0116,0.0143,0.0103,0.0114,0.0113,0.0113,0,0.0357,0.0403,0.0486,0.0549,0.0564,0.0598,0.0637,0.0663,0.0647,0.0626,0.059,0.054,0.0495,0.0431,0.0313,0.0329,0.0247,0.0177,0.0172,0.0148,0.0096,0.0087,0.0095,0.0004,0.0106,0.0107,0.0107,0,0.0399,0.0479,0.055,0.0572,0.0634,0.0661,0.0688,0.0694,0.0722,0.0692,0.0692,0.0616,0.058,0.0462,0.0332,0.0315,0.0192,0.0144,0.0071,0.007,0.006,0.0059,-0.0026,0.0064,0.0064,0.0064,0.0064,0,0.0463,0.0522,0.0572,0.0613,0.0695,0.0708,0.0776,0.078,0.0793,0.0825,0.0749,0.0749,0.058,0.0493,0.0361,0.0216,0.0211,0.0094,0.0056,0.0084,0.0086,-0.0022,-0.0093,0.0063,0.0063,0.0063,0.0064,0,0.0509,0.0542,0.0629,0.0696,0.0719,0.0774,0.0847,0.0888,0.0884,0.092,0.0917,0.0847,0.0733,0.0575,0.0386,0.0265,0.0055,0.0068,0.0131,0.0101,-0.0053,-0.0122,-0.0263,-0.0323,-0.0018,-0.0019,-0.0019,0,0.0544,0.0594,0.0684,0.0731,0.0765,0.0843,0.0897,0.0929,0.0971,0.0984,0.1004,0.0922,0.0876,0.0619,0.0391,0.0177,0.005,0.0053,0.0024,-0.0043,-0.0149,-0.0205,-0.0249,0.0038,0.0038,0.0038,0.0038,0,0.0615,0.0638,0.0703,0.0795,0.086,0.0944,0.1016,0.1068,0.11,0.1131,0.1145,0.1116,0.0897,0.0699,0.0413,0.025,-0.0016,0.0049,-0.0051,-0.0127,-0.0165,-0.0246,0.0068,0.0039,0.0039,0.0039,0.0039,0.0039,0.0657,0.0709,0.0775,0.0864,0.0935,0.1013,0.1075,0.115,0.1226,0.1269,0.1251,0.1236,0.0982,0.0604,0.0376,0.0016,-0.0019,-0.0092,-0.0172,-0.0223,-0.0276,0.0061,0.0003,0.0003,0.0003,0.0002,0.0002,0,0.0707,0.0756,0.0838,0.0926,0.0989,0.1024,0.1129,0.1184,0.1265,0.1344,0.1363,0.1274,0.0945,0.0603,0.0126,-0.014,-0.0259,-0.0292,-0.0365,-0.0404,-0.0122,-0.0113,-0.0161,-0.0161,-0.0161,-0.0161,-0.0161,-0.0161,0.0731,0.0805,0.0842,0.0942,0.0996,0.1069,0.1121,0.1213,0.1294,0.1382,0.142,0.1442,0.124,0.0375,-0.0194,-0.0345,-0.0547,-0.0593,-0.0707,-0.0502,-0.0489,-0.0477,-0.0483,-0.0608,-0.0609,-0.0937,-0.0941,-0.0943]}],[{"header":{"parameterUnit":"m.s-1","parameterCategory":2,"la1":30.2991,"la2":30.254,"lo1":-89.0895,"lo2":-89.0444,"dy":0.0017,"dx":0.0017,"nx":28,"ny":28,"refTime":"2025-04-04T09:00:00:Z","depth":"2","parameterNumber":2,"parameterNumberName":"U-component_of_CURRENTS"},"data":[0,0,0,0,0,0,0,0,0,0,0,0,0,0,0,0,0,0,0,0,0,0,0,0,0,0,0,0,0,0,0,0,0,0,0,0,0,0,0,0,0,0,0,0,0,0,0,0,0,0,0,0,0,0,0,0,0,0,0.2251,0.2251,0,0.2261,0.2261,0.2261,0.2241,0.2241,0.224,0.224,0.2259,0.226,0.2261,0,0,0,0,0,0,0,0,0,0,0,0,0,0.2227,0.2227,0.2251,0.2251,0.2252,0.2261,0.2261,0.2261,0.2241,0.2241,0.224,0.224,0.2259,0.226,0.2261,0,0,0,0,0,0,0,0,0,0,0,0,0,0.2234,0.2227,0.2251,0.2246,0.2246,0.2261,0.2261,0.2261,0.2241,0.2241,0.224,0.224,0.2259,0.226,0.2261,0.2278,0,0,0.2265,0.2265,0,0,0,0,0,0,0,0,0.2233,0.2234,0.2246,0.2246,0.2246,0.2252,0.226,0.2268,0.2241,0.2239,0.224,0.224,0.226,0.2261,0.2259,0.2279,0.228,0.2265,0.2265,0.2266,0.2266,0,0,0,0,0,0,0,0.2233,0.2234,0.2251,0.2247,0.2247,0.2248,0.2247,0.2261,0.225,0.2239,0.2239,0.2246,0.226,0.2258,0.226,0.228,0.2265,0.2266,0.2267,0.2267,0.2381,0.2383,0,0,0,0,0,0,0.2239,0.2233,0.2251,0.2252,0.2242,0.2249,0.2248,0.2248,0.2249,0.225,0.2246,0.2245,0.2256,0.2258,0.226,0.234,0.2266,0.2267,0.2268,0.2379,0.2382,0.2384,0,0,0,0,0,0,0.2238,0.224,0.2251,0.2246,0.2248,0.225,0.2249,0.2249,0.2254,0.2255,0.2255,0.2254,0.2256,0.2259,0.2293,0.2338,0.2268,0.2269,0.2376,0.238,0.2383,0.2462,0,0,0,0,0,0,0.2237,0.2239,0.2248,0.2246,0.2249,0.2269,0.225,0.2249,0.226,0.2259,0.2262,0.2262,0.2256,0.2291,0.2294,0.2339,0.227,0.2373,0.2378,0.2382,0.2457,0.2468,0.2478,0,0,0,0,0,0.2236,0.2246,0.2248,0.2251,0.2258,0.227,0.2271,0.2268,0.2261,0.2269,0.228,0.2263,0.2321,0.2294,0.2296,0.2343,0.2371,0.2376,0.2381,0.2452,0.2466,0.2477,0,0,0,0,0,0,0.2239,0.2246,0.2247,0.2259,0.227,0.2268,0.2275,0.2277,0.229,0.2299,0.2286,0.2289,0.2337,0.2331,0.2301,0.2391,0.2346,0.2352,0.2399,0.2411,0.2422,0.2387,0.2271,0,0,0,0,0,0.2246,0.2254,0.2263,0.2274,0.2277,0.2279,0.2286,0.2296,0.2306,0.231,0.2315,0.2333,0.236,0.2377,0.2393,0.244,0.2417,0.2475,0.2485,0.2494,0.247,0.2485,0.2493,0.2401,0.2401,0.2401,0,0,0.2249,0.2256,0.2261,0.2276,0.2277,0.2299,0.2281,0.2305,0.2338,0.2314,0.2355,0.2366,0.2379,0.2433,0.2455,0.2435,0.2515,0.25,0.2508,0.2478,0.2491,0.2499,0.2507,0.2405,0.2404,0.2403,0,0,0.227,0.2265,0.2286,0.23,0.2325,0.2326,0.2337,0.2353,0.2371,0.2414,0.2416,0.2445,0.2481,0.2501,0.2515,0.2592,0.2566,0.2618,0.2647,0.2664,0.267,0.2676,0.268,0.2685,0.2628,0.2628,0.2628,0,0.228,0.2297,0.2295,0.2325,0.2338,0.2338,0.2369,0.2392,0.2427,0.2452,0.2438,0.2497,0.2507,0.257,0.2599,0.2613,0.2614,0.2598,0.2674,0.2679,0.2683,0.2686,0.2691,0.2632,0.2632,0.2631,0.2631,0,0.2317,0.2336,0.2345,0.2376,0.2397,0.2417,0.2451,0.2486,0.25,0.2522,0.258,0.2589,0.2619,0.2645,0.2641,0.2699,0.2689,0.2682,0.2636,0.2697,0.2697,0.27,0.2639,0.2637,0.2636,0.2635,0,0,0.231,0.236,0.236,0.2387,0.2423,0.2443,0.2505,0.255,0.258,0.2623,0.2656,0.2708,0.2705,0.2719,0.2733,0.2742,0.2784,0.2729,0.2728,0.272,0.282,0.2794,0.2795,0.2799,0.2799,0.28,0.2815,0,0.233,0.2386,0.2407,0.2457,0.2484,0.2513,0.2557,0.2616,0.2641,0.2677,0.2711,0.2745,0.2742,0.276,0.2775,0.2775,0.2793,0.278,0.277,0.2769,0.2728,0.2797,0.2584,0.2577,0.2818,0.2818,0.2818,0,0.2352,0.2387,0.2437,0.2497,0.2508,0.2542,0.2596,0.265,0.2714,0.2739,0.2782,0.279,0.2834,0.2805,0.2835,0.2832,0.283,0.2818,0.2819,0.2757,0.2749,0.2552,0.2574,0.2823,0.2823,0.2822,0.2822,0,0.2339,0.2403,0.2436,0.2456,0.2526,0.2562,0.2605,0.267,0.271,0.2783,0.2799,0.2845,0.2864,0.2872,0.2869,0.2858,0.2874,0.286,0.2835,0.2833,0.2624,0.2603,0.2871,0.2871,0.2871,0.2871,0.2871,0,0.2337,0.2365,0.2433,0.2454,0.2496,0.2568,0.2608,0.2669,0.2731,0.2758,0.2832,0.2842,0.2878,0.2894,0.2885,0.2876,0.2902,0.2836,0.2838,0.2651,0.2633,0.2814,0.2808,0.2872,0.2872,0.2872,0.2872,0,0.2303,0.2346,0.2397,0.2472,0.2492,0.2534,0.2605,0.2628,0.2716,0.275,0.2779,0.2851,0.2879,0.2908,0.2912,0.2895,0.2887,0.2879,0.2658,0.2633,0.2825,0.2823,0.284,0.2839,0.2838,0.2838,0.2837,0,0.2288,0.2311,0.2389,0.2406,0.2433,0.2492,0.2513,0.2611,0.263,0.2732,0.2735,0.2805,0.2816,0.2851,0.2832,0.2833,0.2881,0.2637,0.2575,0.2824,0.2823,0.2822,0.282,0.2333,0.2329,0.2325,0.2322,0,0.2256,0.2281,0.231,0.2344,0.2372,0.2396,0.2444,0.2452,0.2548,0.2584,0.2615,0.2645,0.2708,0.2616,0.2662,0.2628,0.2621,0.2564,0.2873,0.2391,0.2352,0.235,0.2364,0.2289,0.2292,0.2295,0.2297,0.2298,0.2217,0.2222,0.2252,0.2265,0.2292,0.2282,0.226,0.2298,0.2314,0.2332,0.2429,0.2412,0.2453,0.2409,0.234,0.2298,0.2478,0.2358,0.2367,0.238,0.2335,0.2299,0.2216,0.2219,0.2221,0.2224,0.2225,0,0.215,0.2159,0.2169,0.2175,0.214,0.2191,0.2183,0.2131,0.2092,0.2144,0.2159,0.2008,0.1977,0.2019,0.1914,0.1935,0.1881,0.1846,0.1749,0.1785,0.1817,0.174,0.1465,0.1462,0.146,0.1457,0,0,0.2123,0.2093,0.2083,0.2005,0.2005,0.1926,0.1894,0.1846,0.1848,0.1785,0.1762,0.1893,0.1977,0.1693,0.1671,0.1546,0.1642,0.1482,0.2101,0.2024,0.2052,0.2134,0.206,0,0,0,0,0]},{"header":{"parameterUnit":"m.s-1","parameterCategory":2,"la1":30.2991,"la2":30.254,"lo1":-89.0895,"lo2":-89.0444,"dy":0.0017,"dx":0.0017,"nx":28,"ny":28,"refTime":"2025-04-04T09:00:00:Z","depth":"2","parameterNumber":3,"parameterNumberName":"V-component_of_CURRENTS"},"data":[0,0,0,0,0,0,0,0,0,0,0,0,0,0,0,0,0,0,0,0,0,0,0,0,0,0,0,0,0,0,0,0,0,0,0,0,0,0,0,0,0,0,0,0,0,0,0,0,0,0,0,0,0,0,0,0,0,0,0.0038,0.0038,0,0.0029,0.0029,0.0029,0.0018,0.0018,0.0018,0.0018,-0.0011,-0.0011,-0.0012,0,0,0,0,0,0,0,0,0,0,0,0,0,0.0046,0.0046,0.0038,0.0038,0.0038,0.0029,0.0029,0.0029,0.0018,0.0018,0.0018,0.0018,-0.0011,-0.0011,-0.0012,0,0,0,0,0,0,0,0,0,0,0,0,0,0.004,0.0046,0.0038,0.0032,0.0032,0.0029,0.0029,0.0029,0.0018,0.0018,0.0018,0.0018,-0.001,-0.0011,-0.0012,-0.0014,0,0,-0.0015,-0.0016,0,0,0,0,0,0,0,0,0.0041,0.004,0.0033,0.0033,0.0032,0.0025,0.0021,0.0013,0.0019,0.0023,0.0018,0.0018,-0.0,-0.0002,-0.0004,-0.0016,-0.0017,-0.0015,-0.0016,-0.0016,-0.0017,0,0,0,0,0,0,0,0.0041,0.004,0.0034,0.0033,0.0032,0.0029,0.0028,0.002,0.0012,0.0023,0.0022,0.0021,-0.0001,-0.0003,-0.0004,-0.0018,-0.0015,-0.0016,-0.0017,-0.0017,-0.003,-0.003,0,0,0,0,0,0,0.0043,0.0041,0.0035,0.0034,0.0036,0.0029,0.0028,0.0027,0.0013,0.001,0.0022,0.0021,-0.0001,-0.0003,-0.0006,0.0007,-0.0016,-0.0017,-0.0018,-0.003,-0.003,-0.003,0,0,0,0,0,0,0.0043,0.0043,0.0035,0.0037,0.0036,0.003,0.0028,0.0027,0.0025,0.0012,0.0009,0.0021,-0.0001,-0.0004,-0.0004,0.0005,-0.0018,-0.0019,-0.003,-0.003,-0.003,0.0021,0,0,0,0,0,0,0.0044,0.0043,0.0044,0.0038,0.0036,0.0039,0.0029,0.0027,0.0025,0.0024,0.001,0.0008,-0.0001,-0.0002,-0.0005,0.0003,-0.0019,-0.0031,-0.003,-0.003,0.0019,0.0023,0.0026,0,0,0,0,0,0.0044,0.005,0.0044,0.0043,0.0037,0.004,0.0039,0.0033,0.0025,0.0029,0.0023,0.0008,-0.0002,-0.0002,-0.0006,0.0002,-0.0031,-0.003,-0.003,0.0017,0.0022,0.0026,0,0,0,0,0,0,0.0056,0.0049,0.0042,0.0046,0.0044,0.0038,0.0042,0.0034,0.0032,0.0031,0.0015,0.0013,0.0015,-0.0,-0.0001,-0.0002,-0.0021,-0.0021,0.0016,0.002,0.0024,0.0036,-0.002,0,0,0,0,0,0.0058,0.0059,0.0053,0.0055,0.0055,0.0047,0.0047,0.0043,0.004,0.0038,0.0028,0.0018,0.0015,0.0011,0.0004,0.0005,-0.0018,0.0006,0.0009,0.0013,0.002,-0.0013,-0.0011,-0.0028,-0.0028,-0.0028,0,0,0.0063,0.0059,0.0059,0.0058,0.0055,0.0071,0.0047,0.005,0.0065,0.0035,0.0049,0.0031,0.0018,0.0023,0.0022,0.0012,0.0006,0.0013,0.0017,0.0022,-0.0012,-0.001,-0.0009,-0.0027,-0.0027,-0.0028,0,0,0.0082,0.007,0.0083,0.0088,0.0088,0.0084,0.0086,0.0081,0.008,0.0087,0.0072,0.0061,0.0053,0.0047,0.0044,0.0061,0.0027,0.0053,0.0083,0.0052,0.0053,0.0054,0.0031,0.0029,0.0055,0.0055,0.0055,0,0.009,0.0106,0.0087,0.0108,0.0121,0.0094,0.0122,0.0118,0.0114,0.0119,0.0098,0.0086,0.0067,0.008,0.0083,0.0071,0.0048,0.007,0.0057,0.0057,0.0057,0.0033,0.0031,0.0057,0.0057,0.0057,0.0056,0,0.0126,0.0142,0.0151,0.0169,0.0178,0.0195,0.0192,0.0197,0.0184,0.0178,0.0177,0.0145,0.014,0.0125,0.011,0.0105,0.0088,0.0067,0.0048,0.0062,0.0036,0.0033,0.0061,0.006,0.0059,0.0058,0,0,0.0146,0.0171,0.0177,0.0204,0.0215,0.0232,0.0253,0.0269,0.0288,0.026,0.0278,0.025,0.0219,0.0211,0.018,0.0145,0.0119,0.0107,0.0104,0.0089,0.0054,0.0047,0.0042,0.0092,0.0092,0.0091,0.0037,0,0.0185,0.0238,0.0238,0.0297,0.0329,0.0322,0.035,0.0359,0.0347,0.0354,0.031,0.0311,0.0257,0.0251,0.0208,0.0144,0.0111,0.0136,0.0038,0.0036,0.0031,0.0038,0.0054,0.0008,0.0034,0.0033,0.0033,0,0.023,0.0262,0.0322,0.0376,0.0389,0.0416,0.0456,0.0478,0.0474,0.0462,0.044,0.0403,0.0363,0.0306,0.0202,0.0219,0.0145,0.0083,0.0079,0.0054,0.0022,-0.0004,-0.0,0.0026,0.0027,0.0027,0.0028,0,0.027,0.0327,0.0377,0.0397,0.0445,0.0473,0.0499,0.0511,0.054,0.053,0.0537,0.0478,0.0453,0.0349,0.0223,0.0212,0.0098,0.0068,-0.0006,-0.0007,-0.0021,-0.0023,-0.0005,-0.0005,-0.0005,-0.0005,-0.0005,0,0.0321,0.0367,0.0401,0.0435,0.0506,0.0523,0.0585,0.0598,0.0619,0.0656,0.0595,0.0601,0.0458,0.0378,0.0253,0.0118,0.0122,0.0004,-0.0021,-0.0002,-0.0002,-0.0009,-0.0009,-0.0007,-0.0006,-0.0006,-0.0006,0,0.0362,0.0382,0.045,0.0506,0.0528,0.0581,0.065,0.069,0.07,0.0743,0.0747,0.0694,0.0592,0.0447,0.0281,0.0167,0.0032,-0.0016,0.0021,0.0001,-0.006,-0.0056,-0.0102,-0.0102,-0.0103,-0.0104,-0.0104,0,0.039,0.0426,0.05,0.0543,0.057,0.0642,0.0692,0.0729,0.0772,0.08,0.0825,0.0756,0.0715,0.048,0.0274,0.0073,0.0038,-0.0051,-0.0073,-0.0049,-0.007,-0.0065,-0.0061,-0.0073,-0.0073,-0.0073,-0.0073,0,0.0445,0.0462,0.0515,0.0597,0.0657,0.073,0.0802,0.0849,0.0891,0.0926,0.0954,0.0929,0.0729,0.0535,0.0268,0.0125,-0.0018,-0.0059,-0.0048,-0.0046,-0.0025,-0.0044,-0.0041,-0.0074,-0.0074,-0.0074,-0.0074,-0.0074,0.0484,0.0524,0.0582,0.066,0.0727,0.0803,0.086,0.0932,0.1008,0.1056,0.1041,0.1003,0.0801,0.0464,0.0232,-0.0017,-0.0008,-0.0108,-0.0107,-0.0105,-0.0087,-0.0068,-0.0122,-0.0122,-0.0122,-0.0122,-0.0122,0,0.0533,0.0573,0.0642,0.0727,0.0788,0.0823,0.0922,0.0968,0.105,0.1103,0.1126,0.0927,0.0733,0.0492,0.0135,-0.0075,-0.0097,-0.0154,-0.0132,-0.0129,-0.0127,-0.011,-0.015,-0.0151,-0.0152,-0.0152,0,0,0.0563,0.0624,0.0649,0.0751,0.0811,0.0888,0.0939,0.1011,0.1067,0.1101,0.1092,0.108,0.0806,0.0543,0.0261,0.0054,0.0005,0.0005,0.005,0.0112,0.0117,-0.0078,-0.0046,0,0,0,0,0]}],[{"header":{"parameterUnit":"m.s-1","parameterCategory":2,"la1":30.2991,"la2":30.254,"lo1":-89.0895,"lo2":-89.0444,"dy":0.0017,"dx":0.0017,"nx":28,"ny":28,"refTime":"2025-04-04T09:00:00:Z","depth":"4","parameterNumber":2,"parameterNumberName":"U-component_of_CURRENTS"},"data":[0,0,0,0,0,0,0,0,0,0,0,0,0,0,0,0,0,0,0,0,0,0,0,0,0,0,0,0,0,0,0,0,0,0,0,0,0,0,0,0,0,0,0,0,0,0,0,0,0,0,0,0,0,0,0,0,0,0,0.1411,0.1411,0,0.1448,0.1448,0.1448,0.1495,0.1496,0.1496,0.1497,0.1586,0.1587,0.1589,0,0,0,0,0,0,0,0,0,0,0,0,0,0.1411,0.1411,0.1411,0.1411,0.1412,0.1448,0.1448,0.1449,0.1495,0.1496,0.1497,0.1497,0.1585,0.1587,0.1589,0,0,0,0,0,0,0,0,0,0,0,0,0,0.1426,0.1411,0.1411,0.1439,0.1442,0.1447,0.1448,0.1449,0.1494,0.1496,0.1497,0.1498,0.1585,0.1587,0.1589,0.1582,0,0,0.1597,0.1598,0,0,0,0,0,0,0,0,0.1425,0.1425,0.1435,0.1437,0.1441,0.1468,0.1481,0.1496,0.1494,0.1474,0.1497,0.1498,0.155,0.1556,0.1559,0.1586,0.159,0.1597,0.1599,0.16,0.16,0,0,0,0,0,0,0,0.1424,0.1424,0.1425,0.1435,0.1439,0.1461,0.1464,0.1484,0.1506,0.1476,0.148,0.1484,0.1553,0.1556,0.1562,0.1591,0.1597,0.1599,0.1601,0.1602,0.1718,0.172,0,0,0,0,0,0,0.1416,0.1423,0.1424,0.1426,0.1436,0.146,0.1463,0.1458,0.1505,0.1513,0.1483,0.1486,0.1552,0.1559,0.1565,0.1648,0.16,0.1602,0.1603,0.1717,0.1719,0.172,0,0,0,0,0,0,0.1416,0.1416,0.1422,0.1427,0.1429,0.1458,0.1452,0.1458,0.149,0.151,0.1519,0.1512,0.1553,0.1562,0.1611,0.1648,0.1603,0.1605,0.1715,0.1717,0.172,0.1756,0,0,0,0,0,0,0.1416,0.1415,0.1426,0.1425,0.1428,0.144,0.1451,0.1458,0.1489,0.1494,0.1537,0.1545,0.1554,0.1607,0.1614,0.1651,0.1607,0.1713,0.1716,0.1719,0.1753,0.1759,0.1765,0,0,0,0,0,0.1415,0.1414,0.1425,0.1427,0.1436,0.144,0.1444,0.1469,0.149,0.1503,0.1541,0.1545,0.1632,0.161,0.1617,0.1656,0.1711,0.1715,0.1719,0.175,0.1758,0.1765,0,0,0,0,0,0,0.1426,0.1419,0.1431,0.1431,0.1444,0.1448,0.1464,0.1482,0.152,0.1538,0.156,0.157,0.163,0.1636,0.1613,0.17,0.1675,0.168,0.1696,0.1704,0.171,0.1714,0.1609,0,0,0,0,0,0.143,0.1429,0.143,0.1438,0.1441,0.146,0.1472,0.149,0.1514,0.1533,0.1565,0.1605,0.1644,0.1669,0.1699,0.174,0.1748,0.1772,0.1778,0.1783,0.1793,0.1842,0.1853,0.1732,0.1732,0.1732,0,0,0.1441,0.1436,0.144,0.1441,0.1453,0.1465,0.1471,0.1493,0.1521,0.1536,0.1595,0.1628,0.1661,0.1713,0.1741,0.1727,0.182,0.1788,0.1792,0.1799,0.1847,0.1858,0.1869,0.1735,0.1734,0.1734,0,0,0.1444,0.1452,0.1449,0.1459,0.1476,0.1486,0.1498,0.1519,0.1548,0.1595,0.1626,0.1681,0.1729,0.1767,0.179,0.1847,0.1852,0.1863,0.1898,0.1945,0.1955,0.1964,0.1975,0.1985,0.1865,0.1865,0.1865,0,0.1465,0.1453,0.1454,0.1455,0.1474,0.1499,0.1514,0.154,0.1584,0.1617,0.1621,0.173,0.1755,0.1834,0.1857,0.1862,0.1878,0.1864,0.1952,0.1962,0.197,0.198,0.199,0.1867,0.1867,0.1867,0.1866,0,0.1452,0.1465,0.1465,0.1476,0.1498,0.1516,0.1546,0.1586,0.1626,0.1657,0.1746,0.1787,0.1855,0.1875,0.1884,0.197,0.1956,0.1954,0.193,0.1985,0.1991,0.2001,0.187,0.1869,0.1869,0.1868,0,0,0.1448,0.1456,0.1462,0.1479,0.1515,0.1529,0.1583,0.1634,0.1682,0.1739,0.1809,0.1885,0.1922,0.1951,0.1983,0.2024,0.2091,0.202,0.2021,0.2024,0.2179,0.2036,0.2033,0.2109,0.2111,0.2113,0.2152,0,0.1447,0.1449,0.1464,0.1503,0.1511,0.1563,0.161,0.167,0.1724,0.1795,0.1863,0.194,0.1947,0.1996,0.2042,0.2089,0.2123,0.2079,0.2132,0.2133,0.1994,0.2042,0.2121,0.216,0.2162,0.2164,0.2165,0,0.1427,0.1434,0.1459,0.1515,0.1528,0.1568,0.1658,0.1707,0.1806,0.1851,0.1941,0.1994,0.2092,0.2079,0.2182,0.2158,0.2176,0.2193,0.2195,0.2058,0.2009,0.2099,0.2183,0.2181,0.218,0.2179,0.2178,0,0.1398,0.1437,0.146,0.1477,0.154,0.1586,0.1641,0.1732,0.1786,0.1903,0.1958,0.2066,0.2141,0.2191,0.2238,0.2224,0.2325,0.2304,0.2186,0.2175,0.2275,0.2265,0.2366,0.2366,0.2366,0.2366,0.2366,0,0.1368,0.1395,0.1455,0.1463,0.1523,0.1582,0.166,0.1727,0.1831,0.1894,0.1998,0.2061,0.2179,0.2248,0.2265,0.2254,0.235,0.2198,0.2183,0.2286,0.2278,0.2281,0.227,0.2368,0.2367,0.2367,0.2367,0,0.1322,0.1355,0.1389,0.1467,0.1503,0.1551,0.1664,0.1711,0.1822,0.191,0.1958,0.2093,0.217,0.2249,0.2332,0.2276,0.2283,0.2253,0.2351,0.234,0.2089,0.2081,0.2114,0.2109,0.2106,0.2102,0.21,0,0.1289,0.1297,0.1384,0.1415,0.1456,0.1535,0.1584,0.1697,0.1743,0.1904,0.1935,0.2066,0.2135,0.2132,0.2222,0.2235,0.2215,0.2195,0.2144,0.2085,0.2068,0.2066,0.2062,0.2094,0.2093,0.2092,0.2091,0,0.1234,0.1277,0.1307,0.1366,0.1422,0.1474,0.1554,0.1575,0.1697,0.1816,0.1864,0.1909,0.1989,0.2042,0.2074,0.2081,0.2195,0.2154,0.2162,0.2113,0.2061,0.2047,0.2048,0.2077,0.2079,0.208,0.2081,0,0.1209,0.1217,0.1261,0.1307,0.1373,0.1392,0.1439,0.1486,0.1543,0.1705,0.1716,0.1844,0.1963,0.1962,0.1991,0.1989,0.1956,0.1887,0.1907,0.1923,0.1844,0.1749,0.1662,0,0,0,0,0,0.1175,0.1169,0.1201,0.1231,0.129,0.1328,0.1411,0.1457,0.1567,0.1554,0.1627,0.1684,0.173,0.1802,0.1762,0.1913,0.1969,0.1859,0.1902,0.2003,0.2018,0.1944,0,0,0,0,0,0,0.115,0.1173,0.1168,0.1159,0.1171,0.1217,0.1263,0.1336,0.1331,0.1455,0.149,0.1586,0.166,0.1739,0.1734,0.1753,0.1745,0.1938,0.1934,0.1994,0.2008,0.2021,0.195,0,0,0,0,0]},{"header":{"parameterUnit":"m.s-1","parameterCategory":2,"la1":30.2991,"la2":30.254,"lo1":-89.0895,"lo2":-89.0444,"dy":0.0017,"dx":0.0017,"nx":28,"ny":28,"refTime":"2025-04-04T09:00:00:Z","depth":"4","parameterNumber":3,"parameterNumberName":"V-component_of_CURRENTS"},"data":[0,0,0,0,0,0,0,0,0,0,0,0,0,0,0,0,0,0,0,0,0,0,0,0,0,0,0,0,0,0,0,0,0,0,0,0,0,0,0,0,0,0,0,0,0,0,0,0,0,0,0,0,0,0,0,0,0,0,0.0056,0.0056,0,0.0055,0.0055,0.0055,0.0039,0.0038,0.0038,0.0037,0.0011,0.0011,0.0011,0,0,0,0,0,0,0,0,0,0,0,0,0,0.0046,0.0046,0.0056,0.0056,0.0056,0.0055,0.0055,0.0055,0.0039,0.0038,0.0038,0.0037,0.0011,0.0011,0.0011,0,0,0,0,0,0,0,0,0,0,0,0,0,0.0048,0.0046,0.0056,0.0047,0.0047,0.0055,0.0055,0.0055,0.0039,0.0038,0.0038,0.0037,0.0012,0.0011,0.0011,0.0021,0,0,0.0009,0.0009,0,0,0,0,0,0,0,0,0.0048,0.0049,0.0049,0.0048,0.0047,0.0046,0.0042,0.0043,0.0039,0.0042,0.0037,0.0037,0.0021,0.002,0.0022,0.002,0.0019,0.0009,0.0009,0.0009,0.0009,0,0,0,0,0,0,0,0.0048,0.0049,0.0055,0.0049,0.0048,0.0045,0.0045,0.0043,0.0035,0.0041,0.004,0.0041,0.0021,0.0022,0.0021,0.0018,0.0009,0.0009,0.0009,0.0008,0.0022,0.0022,0,0,0,0,0,0,0.0049,0.0049,0.0055,0.0055,0.0046,0.0046,0.0045,0.0047,0.0035,0.0033,0.0041,0.004,0.0023,0.0021,0.002,0.0038,0.0009,0.0008,0.0008,0.0021,0.0022,0.0022,0,0,0,0,0,0,0.0049,0.005,0.0055,0.0052,0.0052,0.0047,0.0049,0.0048,0.0047,0.0035,0.0032,0.0042,0.0023,0.002,0.0025,0.0036,0.0008,0.0008,0.002,0.0021,0.0022,0.0069,0,0,0,0,0,0,0.0048,0.005,0.0052,0.0052,0.0053,0.0067,0.005,0.0048,0.0048,0.0047,0.0035,0.0032,0.0022,0.0026,0.0025,0.0035,0.0007,0.0019,0.0021,0.0022,0.0067,0.0072,0.0076,0,0,0,0,0,0.0048,0.0058,0.0052,0.0053,0.0056,0.0068,0.0068,0.0061,0.0049,0.0057,0.0049,0.0032,0.0032,0.0027,0.0025,0.0035,0.0019,0.002,0.0022,0.0065,0.0071,0.0076,0,0,0,0,0,0,0.0056,0.0058,0.0051,0.0061,0.0065,0.0065,0.0071,0.0064,0.0064,0.0061,0.0044,0.0042,0.0049,0.0037,0.0031,0.0042,0.0021,0.0022,0.0055,0.006,0.0064,0.0066,0.0007,0,0,0,0,0,0.0059,0.0066,0.0067,0.0074,0.0078,0.0074,0.0076,0.0073,0.0073,0.0071,0.0064,0.0056,0.0055,0.0053,0.0051,0.0059,0.003,0.0062,0.0067,0.0071,0.0071,0.0034,0.0034,0.0027,0.0027,0.0027,0,0,0.0063,0.0066,0.0068,0.0076,0.0078,0.0097,0.0074,0.0083,0.0098,0.0069,0.0086,0.0073,0.0061,0.0072,0.0073,0.0062,0.006,0.0072,0.0076,0.0074,0.0035,0.0036,0.0036,0.0028,0.0028,0.0027,0,0,0.0083,0.0079,0.0094,0.0104,0.0112,0.0112,0.0116,0.0119,0.0119,0.0133,0.0115,0.0109,0.0111,0.0102,0.0098,0.0124,0.0086,0.0123,0.0145,0.011,0.011,0.0109,0.0082,0.0079,0.0123,0.0123,0.0123,0,0.0088,0.0108,0.0101,0.0124,0.0136,0.0122,0.0146,0.015,0.0155,0.0155,0.0145,0.0138,0.0126,0.013,0.0139,0.0134,0.0108,0.0128,0.0115,0.0114,0.0112,0.0084,0.008,0.0126,0.0126,0.0125,0.0125,0,0.0124,0.0141,0.0154,0.0177,0.0188,0.0207,0.0212,0.0222,0.0215,0.0211,0.0211,0.0194,0.0185,0.0181,0.017,0.016,0.0143,0.0125,0.01,0.0116,0.0085,0.008,0.0129,0.0128,0.0128,0.0127,0,0,0.0135,0.0171,0.0176,0.0196,0.0218,0.0233,0.0258,0.0271,0.0281,0.0274,0.028,0.027,0.0244,0.0237,0.0215,0.0184,0.0157,0.0154,0.0151,0.0126,0.008,0.0076,0.007,0.0132,0.0132,0.0131,0.0064,0,0.0165,0.0215,0.0224,0.0272,0.0298,0.03,0.0327,0.0335,0.0329,0.0333,0.0301,0.03,0.0271,0.0264,0.023,0.0176,0.0144,0.0177,0.0069,0.0066,0.006,0.0064,0.0129,0.006,0.0059,0.0058,0.0057,0,0.0201,0.0229,0.0279,0.0321,0.0333,0.0359,0.0386,0.0407,0.0404,0.0396,0.0376,0.035,0.0318,0.0285,0.0195,0.0215,0.0153,0.0105,0.01,0.0076,0.0053,0.0039,0.0047,0.0048,0.0049,0.0049,0.005,0,0.0215,0.0269,0.0307,0.0325,0.037,0.0391,0.0413,0.0423,0.0443,0.0431,0.0431,0.0384,0.0366,0.028,0.019,0.0187,0.0081,0.0062,-0.0,-0.0001,0.0,0.0001,-0.001,-0.001,-0.001,-0.001,-0.001,0,0.0246,0.0279,0.0319,0.0344,0.0394,0.0415,0.0457,0.0468,0.0483,0.0503,0.0462,0.046,0.0361,0.0294,0.02,0.0089,0.0085,0.0003,-0.002,0.0024,0.0028,-0.0003,-0.0002,-0.0013,-0.0012,-0.0012,-0.0011,0,0.0259,0.0285,0.0334,0.0383,0.0404,0.0439,0.0495,0.0522,0.0529,0.0551,0.0552,0.0514,0.043,0.0324,0.019,0.011,-0.0002,-0.0042,0.0022,0.0004,-0.0063,-0.0058,-0.0121,-0.0121,-0.0122,-0.0122,-0.0123,0,0.0272,0.0299,0.036,0.0391,0.0416,0.047,0.051,0.0542,0.0569,0.0583,0.0594,0.0537,0.0493,0.0312,0.0192,0.0014,-0.0015,-0.0077,-0.008,-0.0059,-0.0075,-0.0069,-0.0064,-0.0124,-0.0124,-0.0124,-0.0124,0,0.0293,0.0311,0.0349,0.0411,0.0458,0.0514,0.057,0.0593,0.0628,0.0635,0.0627,0.0545,0.0455,0.032,0.0187,0.0056,-0.0039,-0.0084,-0.0083,-0.0087,-0.0063,-0.0078,-0.0072,-0.0126,-0.0126,-0.0126,-0.0126,0,0.0306,0.0329,0.0375,0.0429,0.0488,0.054,0.0571,0.061,0.0641,0.0656,0.0653,0.056,0.0516,0.0341,0.0215,0.0092,0.0053,-0.0001,-0.0006,-0.0005,0.0046,0.0095,0.006,0,0,0,0,0,0.0319,0.0343,0.0391,0.0448,0.0505,0.054,0.0606,0.0631,0.0664,0.0663,0.0661,0.0579,0.0412,0.0349,0.0224,0.0185,0.0018,0.0032,-0.0049,-0.0138,-0.0136,-0.0095,0,0,0,0,0,0,0.0328,0.037,0.0388,0.0453,0.0492,0.0557,0.0598,0.0622,0.0627,0.0643,0.0565,0.0533,0.0377,0.0483,0.0218,0.0182,0.0109,-0.0039,-0.0043,-0.0139,-0.0137,-0.0135,-0.0093,0,0,0,0,0]}]]